Regional Weather Roundup
Issued by NWS

Home | Current Version | Previous Version | Graphics & Text | Print | Product List | Glossary On
Versions: 1 2 3 4 5 6 7 8 9 10 11 12 13 14 15 16 17 18 19 20 21 22 23 24 25 26 27 28 29 30 31 32 33 34 35 36 37 38 39 40 41 42 43 44 45 46 47 48 49 50
000
ASUS45 KBOI 281610
RWRID

IDAHO REGIONAL WEATHER ROUNDUP
NATIONAL WEATHER SERVICE BOISE ID
1000 AM MDT THU MAY 28 2015

NOTE: "FAIR" INDICATES FEW OR NO CLOUDS BELOW 12000 FEET
WITH NO SIGNIFICANT WEATHER AND/OR OBSTRUCTIONS TO VISIBILITY

IDZ012-014-281700-
SOUTHWEST IDAHO


CITY           SKY/WX    TMP DP  RH WIND       PRES   REMARKS
BOISE          SUNNY     62  46  55 CALM      30.10S
CALDWELL       SUNNY     63  45  51 N5        30.12R
MOUNTAIN HOME  SUNNY     64  43  46 NW7       30.10R
$$

IDZ016-017-281700-
SOUTHCENTRAL IDAHO


CITY           SKY/WX    TMP DP  RH WIND       PRES   REMARKS
BURLEY         SUNNY     59  47  64 W8        30.11R
JEROME         SUNNY     56  47  71 S6        30.13R
TWIN FALLS     SUNNY     63  44  50 W8        30.10R
$$

IDZ019>023-281700-
SOUTHEAST IDAHO


CITY           SKY/WX    TMP DP  RH WIND       PRES   REMARKS
IDAHO FALLS    LGT RAIN  48  43  82 E6        30.15R
POCATELLO      MOSUNNY   57  48  72 N5        30.14R
REXBURG        PTSUNNY   52  46  80 S7        30.14R
$$

IDZ006-010-011-018-031-032-281700-
CENTRAL IDAHO MOUNTAINS


CITY           SKY/WX    TMP DP  RH WIND       PRES   REMARKS
MCCALL         SUNNY     53  41  63 CALM      30.15R
HAILEY         MOSUNNY   55  39  54 CALM      30.16R
STANLEY        NOT AVBL
SALMON         CLOUDY    54  46  76 N5        30.14R
CHALLIS        SUNNY     54  41  61 VRB3      30.16R
$$

IDZ002-004-006-007-026-281700-
NORTHERN IDAHO


CITY           SKY/WX    TMP DP  RH WIND       PRES   REMARKS
LEWISTON       SUNNY     64  50  60 E6        30.11R
LOWELL         NOT AVBL
COEUR D`ALENE  MOSUNNY   64  52  63 S9        30.09R
MULLAN PASS    CLOUDY    49  44  83 N3        30.19R
$$


USA.gov is the U.S. government's official web portal to all federal, state and local government web resources and services.